Location: Hylvaty SDH
(49.9612°N, 16.4057°E)
Time: 18:46:33
(UTC+02:00)

Transit 4A - Pass Details

Date: 12 August 2020
Orbit: 862 x 982 km, 66.8° (Epoch: 28 September)

Event Time Altitude Azimuth Distance (km) Brightness Sun altitude
Rises 14:55:48 0° 312° (NW) 3,604 11.0 47.6°
Reaches altitude 10° 14:59:13 10° 330° (NNW) 2,682 10.3 47.2°
Maximum altitude 15:03:28 19° 13° (NNE) 2,151 9.7 46.7°
Drops below altitude 10° 15:07:46 10° 56° (NE) 2,723 10.0 46.2°
Sets 15:11:16 0° 75° (ENE) 3,681 10.6 45.8°
